Wetbulb
58.92 58.84 58.14 56.05 54.34 52.81 56.88 60.57 57.74 64.27 63.20 54.35 54.63 52.15 54.13 54.20 56.02 56.69 55.38 55.28 54.71 54.67 53.90 52.85 52.69 51.90 54.32 56.90 56.10 53.31 54.96 52.47 50.18 51.52 55.69 57.60 56.92 54.86 54.79 49.99 50.78 52.33 51.96 51.61
59.10 58.98 57.34 55.61 54.00 53.23 57.70 58.00 62.20 64.61 61.25 51.36 52.54 54.84 54.00 55.65 54.93 55.37 54.47 53.85 55.39 56.53 55.12 53.61 54.23 53.76 56.54 57.16 55.63 54.37 54.94 51.68 48.18 51.33 53.90 56.27 54.25 56.46 56.96 55.31 54.76 50.94 49.05 50.70
59.24 58.39 56.86 55.47 54.24 53.63 56.70 58.47 58.60 59.37 58.49 57.54 55.73 55.83 53.99 53.08 56.14 54.99 55.34 55.36 56.47 56.04 54.97 56.76 53.91 53.22 55.60 56.34 55.73 63.22 60.41 51.95 51.29 50.22 52.86 54.76 53.80 55.22 55.93 53.81 51.54 49.48 52.66 50.89
59.21 58.08 57.10 55.77 54.52 53.63 56.33 60.24 58.55 59.30 55.07 54.40 54.68 55.91 56.25 55.27 53.99 55.06 55.37 54.90 55.15 55.40 54.40 54.83 54.17 54.88 55.42 55.93 58.85 57.13 54.70 50.47 52.28 54.23 54.83 55.70 55.50 54.07 53.86 53.89 54.60 52.05 54.19 55.08
58.33 58.06 57.41 56.21 54.64 53.25 60.11 58.15 56.83 59.07 58.87 59.79 58.63 54.87 55.72 55.49 56.36 56.21 54.45 54.52 55.60 56.25 55.57 56.56 55.49 55.53 55.51 55.02 55.78 54.50 54.89 52.76 54.01 52.32 54.82 55.14 53.45 54.67 55.38 55.00 54.56 54.15 54.22 57.31
57.94 58.02 57.45 56.66 54.90 54.37 61.78 63.28 61.79 59.02 55.34 58.08 56.38 56.40 57.46 56.68 57.74 59.14 59.30 58.08 58.91 57.06 57.99 60.60 60.33 61.37 61.62 59.08 56.56 54.35 53.85 52.17 52.60 50.04 53.79 54.38 51.67 54.13 54.54 54.04 55.05 54.79 52.51 58.78
57.58 57.50 56.85 57.08 56.00 54.64 59.09 62.26 60.94 57.15 53.88 56.85 56.71 58.76 55.94 54.42 57.35 57.27 60.34 61.21 59.88 61.84 66.20 63.13 60.42 60.02 61.51 59.94 58.76 57.92 55.23 55.89 54.02 50.60 52.70 46.79 54.03 60.46 58.60 55.83 56.76 58.73 58.92 60.44
56.96 57.02 57.23 57.27 56.69 55.69 57.75 61.92 61.24 58.29 54.39 56.71 56.59 57.15 57.19 56.79 59.86 58.61 58.84 61.61 63.32 64.73 63.35 59.60 56.24 54.17 54.58 56.28 56.23 56.22 58.94 55.98 52.47 50.29 50.72 53.66 55.02 58.13 57.27 56.92 57.01 59.88 59.42 59.51
56.20 56.29 56.61 57.07 57.19 56.03 58.03 61.64 64.13 60.34 56.26 55.58 58.54 56.45 57.96 56.63 57.36 58.26 59.31 63.12 65.18 63.76 60.19 57.43 55.05 50.30 48.55 49.85 51.64 57.94 59.37 59.65 52.98 53.14 49.98 46.34 52.62 58.07 60.30 59.69 53.45 58.44 61.45 61.74
55.74 55.86 56.30 57.09 57.24 56.44 56.45 59.98 65.04 60.88 56.99 59.50 59.79 56.46 56.51 59.90 59.19 57.87 58.47 60.40 61.77 63.14 57.81 54.79 52.31 51.01 55.73 49.90 52.42 53.64 54.38 51.94 50.18 49.91 51.09 51.61 57.79 60.16 60.55 51.52 53.70 57.88 61.53 63.49
55.00 55.22 55.62 56.22 56.70 57.02 56.50 60.23 65.26 60.95 57.93 59.37 61.05 60.79 58.76 59.15 60.12 56.36 56.92 57.18 60.84 60.09 56.35 54.74 53.52 52.37 54.31 53.65 55.26 53.27 52.71 51.25 52.04 55.24 53.03 49.54 61.14 59.97 55.58 61.80 61.32 62.91 63.99 65.27
54.75 54.95 55.33 55.81 56.31 56.50 56.10 58.96 64.07 63.72 58.70 59.02 62.45 62.65 63.01 61.68 61.69 60.14 60.98 60.32 62.47 62.32 59.59 58.06 55.98 53.44 55.66 52.98 50.57 56.93 52.06 54.26 53.24 55.98 56.86 62.48 62.85 60.86 64.12 60.71 61.76 64.53 64.90 64.74
53.92 54.82 55.15 55.58 55.38 55.40 55.02 57.18 60.59 61.07 58.94 59.76 60.89 60.30 63.77 64.78 62.87 63.39 58.66 62.37 63.43 62.97 63.76 58.09 54.07 50.64 55.21 51.27 52.46 54.68 54.40 59.29 57.66 56.70 59.46 59.18 62.05 63.38 65.46 65.28 64.82 65.33 65.27 65.52
53.67 54.41 54.73 54.57 54.26 54.19 54.09 55.99 60.17 59.87 59.41 55.81 58.93 63.34 61.20 63.16 62.53 62.85 63.27 62.53 63.47 63.39 63.07 60.26 58.16 53.29 56.49 51.52 54.54 51.58 54.04 58.00 54.53 54.32 61.06 61.49 62.94 64.95 65.09 65.50 65.48 65.73 66.04 66.78
52.70 52.99 52.94 52.76 52.77 53.22 53.88 57.42 60.21 61.85 57.42 54.95 57.49 62.41 63.02 62.21 61.64 61.63 63.01 62.30 61.45 61.15 60.04 59.41 57.97 59.18 58.93 56.52 56.48 51.54 59.05 56.88 52.93 51.82 64.44 66.59 65.59 65.25 65.29 64.39 65.09 65.39 65.78 65.34
50.55 50.68 50.80 51.21 51.47 52.44 55.97 58.30 63.10 64.42 61.54 56.69 55.13 62.41 60.62 60.96 61.33 61.14 61.33 62.62 61.97 61.35 60.32 59.61 61.14 61.74 59.28 55.14 54.93 56.93 61.05 62.44 62.66 61.46 63.09 63.13 63.39 65.42 65.04 64.93 65.64 65.50 65.22 65.65
49.57 49.93 50.08 50.63 51.25 51.82 54.42 53.93 57.77 53.44 61.07 57.16 56.34 56.61 59.92 61.09 60.96 60.33 61.97 62.84 61.72 61.01 60.26 59.50 59.30 59.45 59.96 57.00 53.75 59.01 60.70 58.25 63.51 63.71 63.66 61.81 62.22 61.58 64.28 65.57 66.03 64.61 65.75 65.73
49.23 49.56 50.27 50.87 51.15 51.00 52.64 58.96 54.19 55.74 58.95 59.83 54.96 55.70 57.84 60.93 57.33 57.17 61.95 59.93 60.82 60.88 59.18 60.05 59.12 59.87 59.09 54.92 58.55 60.54 62.46 62.80 62.47 62.99 64.01 62.91 63.98 65.09 64.36 65.83 65.50 64.19 64.13 64.54
49.95 50.17 50.17 51.64 53.80 56.72 58.91 58.08 55.79 58.79 58.45 55.77 57.01 53.45 53.34 60.35 58.64 58.93 59.73 60.42 55.87 59.75 56.70 57.04 57.91 55.75 53.86 59.43 60.62 61.72 62.19 61.95 62.79 63.89 62.88 62.76 62.75 63.37 63.27 63.90 64.05 63.59 63.56 64.10
49.68 49.43 52.88 53.54 56.40 56.84 57.43 57.87 57.04 56.66 58.13 57.99 54.81 58.80 54.90 59.57 58.14 57.55 57.00 58.14 55.40 53.62 56.25 58.41 55.62 54.38 63.00 63.11 62.92 63.20 62.07 61.55 62.67 61.88 61.19 61.16 62.03 62.81 63.32 63.31 63.94 64.08 62.55 62.53
53.15 53.29 53.07 56.17 57.00 58.89 57.54 54.07 53.59 55.75 53.86 57.56 57.34 57.71 55.66 61.53 56.56 55.93 58.23 56.49 56.30 51.26 55.12 54.48 53.56 54.38 61.71 63.49 63.15 64.10 62.90 62.41 63.89 64.42 65.04 63.16 64.91 63.75 62.96 63.25 64.13 64.14 63.66 63.92
47.68 48.87 51.76 55.96 56.90 55.02 52.87 52.07 54.55 54.00 53.13 57.60 56.40 57.28 58.67 60.42 61.93 58.15 58.48 54.98 56.04 50.22 56.09 52.15 49.99 59.54 63.73 63.45 62.97 64.21 65.45 64.71 64.32 64.62 63.91 64.34 64.74 64.77 64.85 64.56 64.49 64.64 65.22 65.37
53.05 51.85 51.82 52.91 54.05 44.39 48.18 47.43 50.89 51.54 55.91 58.52 58.03 56.78 58.27 59.22 59.60 57.29 53.40 51.06 52.17 58.08 52.68 46.33 54.09 61.31 63.32 63.28 64.60 63.59 63.84 63.47 63.10 62.47 63.42 63.73 63.48 64.03 63.44 62.72 62.89 62.45 63.67 64.16
46.61 47.78 40.21 48.51 46.51 50.57 51.99 52.36 54.80 57.69 58.94 58.47 59.44 58.00 57.19 58.22 55.65 55.92 52.18 55.79 56.11 51.21 49.54 51.59 57.50 59.56 59.37 60.70 61.14 60.68 60.15 60.70 60.02 59.75 59.96 59.89 60.40 60.52 61.29 61.49 62.77 63.39 64.09 64.32
45.93 49.17 44.44 49.64 53.37 54.71 55.65 58.15 56.31 59.41 59.77 59.41 57.73 57.57 58.28 56.26 54.63 55.74 53.87 51.13 47.71 50.96 51.93 56.66 58.02 59.22 58.56 59.46 60.63 61.69 61.49 61.28 61.02 61.52 61.29 61.51 61.31 60.86 60.48 61.70 62.17 61.91 61.83 63.02
46.32 49.21 50.10 54.01 52.08 54.32 56.33 57.65 58.10 60.81 59.52 61.18 59.50 55.63 53.57 52.63 53.62 51.75 50.72 49.44 48.02 53.77 57.44 59.20 60.38 59.47 58.07 58.61 59.98 60.18 60.36 60.72 60.55 60.70 60.91 60.50 60.53 60.41 60.96 61.59 62.54 62.87 63.72 63.85
49.97 51.16 54.20 53.28 55.56 54.73 54.66 57.73 58.93 61.17 57.81 55.55 55.72 51.96 50.92 54.92 51.37 50.87 55.55 52.90 56.75 58.76 58.85 60.25 62.31 61.26 60.18 60.38 59.90 59.05 59.16 59.27 59.52 59.74 60.13 60.34 61.42 62.70 61.88 60.13 63.42 61.66 61.48 61.88
MSLP
1017.93 1017.48 1016.99 1016.41 1015.56 1014.07 1011.39 1009.29 1005.50 1004.18 1004.49 1004.56 1003.35 1001.97 1000.54 999.17 997.91 998.00 998.22 997.70 996.76 995.89 995.04 994.86 995.07 995.29 995.15 995.22 995.83 995.88 996.71 996.18 995.28 995.42 995.80 996.01 996.01 996.18 996.41 996.58 997.14 998.49 1001.28 1004.92
1017.74 1017.35 1016.89 1016.36 1015.86 1015.40 1013.64 1009.39 1004.95 1003.68 1003.91 1003.01 1001.53 1000.63 999.88 998.71 998.57 998.35 998.02 997.55 997.08 996.27 995.51 994.96 994.58 995.14 995.03 994.87 995.70 995.91 996.66 996.43 995.92 995.66 995.88 996.01 995.76 995.86 995.82 995.82 996.18 999.30 1001.56 1006.16
1017.59 1017.21 1016.73 1016.16 1015.71 1015.44 1014.53 1009.88 1004.49 1003.06 1003.45 1002.76 1001.56 999.80 998.88 998.73 998.79 998.71 998.02 997.54 997.00 996.53 996.19 995.37 994.83 995.10 995.22 995.89 996.20 996.74 996.47 996.19 995.66 995.28 994.68 994.95 995.27 995.49 995.64 995.89 996.01 999.19 1001.01 1004.21
1017.41 1017.10 1016.59 1015.96 1015.28 1014.99 1014.59 1009.43 1005.30 1005.79 1002.42 1001.85 1001.11 1000.18 999.62 998.86 998.23 998.20 998.31 997.90 997.55 997.16 996.56 996.07 995.57 995.56 995.28 996.01 996.68 996.74 996.57 996.17 995.83 995.46 996.04 995.13 994.63 995.04 995.44 995.46 995.73 996.74 998.35 999.67
1017.41 1017.07 1016.59 1015.93 1014.94 1013.75 1012.40 1008.47 1006.91 1005.41 1003.76 1002.55 1001.19 1000.65 1000.59 999.92 998.90 998.00 997.75 997.62 997.36 997.39 996.77 996.33 996.40 996.51 996.15 996.11 996.69 996.78 996.56 996.25 996.08 995.87 996.26 996.18 995.78 995.05 995.26 995.13 995.68 996.37 997.43 998.56
1017.37 1016.99 1016.58 1016.00 1015.29 1013.64 1011.12 1009.18 1008.36 1006.77 1004.55 1002.68 1001.53 1000.94 1001.15 1001.40 999.29 998.83 997.96 997.51 997.17 996.63 996.73 997.63 998.32 999.15 998.93 996.65 996.67 996.91 996.66 996.39 996.31 996.03 995.84 995.88 996.00 995.36 995.36 995.53 995.85 996.18 996.59 997.71
1017.38 1016.93 1016.62 1016.32 1015.87 1015.75 1014.11 1011.35 1009.96 1007.78 1005.14 1003.09 1001.67 1002.20 1003.16 1002.38 1000.90 999.65 998.77 998.12 997.61 997.09 997.39 998.69 999.44 1000.00 1000.08 998.90 996.75 996.71 996.98 996.87 996.88 996.67 996.80 996.31 996.31 996.92 996.45 996.30 996.57 997.22 997.00 998.10
1017.36 1017.03 1016.82 1016.47 1016.06 1015.65 1014.42 1012.43 1010.36 1008.65 1006.36 1004.19 1002.56 1002.17 1003.11 1004.07 1001.42 1000.40 999.60 998.66 997.92 997.77 998.35 999.06 1000.22 1002.46 1001.60 1001.35 999.98 998.28 997.71 997.55 998.15 998.19 998.07 997.95 998.15 999.68 999.92 999.51 998.46 998.05 998.31 997.72
1017.43 1017.14 1016.87 1016.49 1016.07 1015.66 1014.48 1012.43 1011.17 1010.11 1008.05 1004.52 1003.70 1003.54 1003.16 1002.53 1001.03 1000.05 999.42 998.54 998.55 998.22 998.14 998.45 999.65 1001.64 1003.74 1005.45 1003.10 999.90 999.85 999.84 1000.87 1001.33 1000.67 1001.35 1002.91 1002.11 1000.68 1001.06 1000.26 999.67 999.73 996.64
1017.46 1017.19 1016.96 1016.58 1016.25 1015.90 1015.31 1012.77 1011.26 1010.68 1008.49 1005.83 1004.66 1003.72 1003.47 1003.13 1002.10 1001.91 1001.61 1002.01 998.95 998.40 998.28 998.67 1001.23 1003.35 1004.86 1005.04 1003.94 1002.14 1003.03 1003.14 1002.45 1002.84 1002.50 1002.11 1001.55 1002.28 1002.61 1002.29 1001.75 1000.41 1001.26 999.78
1017.49 1017.30 1017.10 1016.83 1016.47 1015.96 1015.31 1012.57 1011.35 1011.27 1009.31 1006.86 1005.67 1004.57 1003.63 1003.35 1003.13 1003.84 1005.98 1004.05 999.55 998.13 998.65 999.60 1003.15 1004.46 1005.85 1005.78 1005.46 1004.80 1004.55 1004.40 1003.92 1001.55 1000.33 1001.80 1002.74 1003.33 1003.94 1002.44 1002.06 1001.84 1000.34 1000.54
1017.65 1017.41 1017.15 1016.90 1016.62 1016.21 1015.67 1012.98 1011.39 1011.30 1010.66 1007.62 1006.25 1005.43 1004.22 1004.13 1004.42 1004.32 1004.12 1002.58 1000.91 999.87 999.64 1002.50 1005.32 1006.78 1006.76 1006.01 1005.88 1005.64 1005.17 1004.88 1005.31 1003.79 1002.58 1002.63 1003.38 1002.55 1001.69 1002.29 1003.84 1000.38 1000.90 1001.48
1017.77 1017.51 1017.16 1016.95 1016.75 1016.51 1016.21 1014.30 1012.75 1011.43 1009.59 1007.03 1004.91 1003.44 1002.35 1002.67 1003.07 1003.44 1003.28 1001.59 1001.65 1000.97 1000.98 1003.30 1006.86 1008.92 1008.02 1007.01 1007.34 1006.82 1006.41 1004.90 1003.90 1003.07 1002.22 1001.86 1001.42 1001.19 1000.00 1000.21 1000.52 1000.47 1001.17 1001.50
1017.73 1017.51 1017.25 1017.04 1016.85 1016.54 1016.28 1014.66 1013.09 1012.24 1010.21 1007.14 1002.94 1002.20 1002.27 1002.19 1001.83 1002.02 1002.34 1002.12 1001.71 1000.96 1000.73 1001.10 1003.76 1006.14 1006.55 1006.97 1006.54 1006.64 1006.80 1005.67 1004.65 1003.07 1001.97 1001.22 1001.19 1000.20 1000.33 1000.86 1000.81 1001.12 1001.45 1002.00
1017.79 1017.62 1017.40 1017.18 1016.85 1016.40 1015.62 1014.09 1012.85 1012.15 1011.75 1008.51 1005.11 1003.10 1001.68 1001.67 1001.83 1002.00 1002.03 1001.89 1001.65 1001.25 1000.76 1000.42 1000.89 1001.54 1003.59 1004.59 1003.76 1005.49 1005.03 1004.68 1005.30 1005.31 1001.89 1001.49 1001.12 1000.66 1000.86 1001.19 1001.47 1001.83 1002.12 1002.68
1017.92 1017.71 1017.42 1017.12 1016.83 1016.37 1014.72 1012.13 1011.72 1011.80 1011.90 1010.01 1005.64 1002.60 1001.87 1001.80 1001.88 1002.10 1002.00 1001.77 1001.45 1001.19 1000.53 1000.20 1000.08 1001.03 1001.62 1001.26 1001.38 1002.17 1001.26 1002.47 1002.31 1002.35 1002.51 1001.83 1001.41 1000.96 1001.33 1001.72 1002.04 1002.38 1002.88 1003.45
1017.74 1017.49 1017.23 1016.91 1016.71 1016.38 1014.70 1014.48 1013.55 1013.73 1012.64 1010.17 1006.12 1002.55 1001.64 1001.91 1001.85 1001.78 1001.58 1001.44 1001.18 1000.89 1000.36 1000.11 1000.33 1001.07 1001.67 1001.31 1001.06 1000.89 1001.52 1002.67 1002.23 1001.70 1001.86 1001.81 1001.17 1001.20 1001.68 1001.93 1002.47 1003.22 1003.62 1004.25
1017.44 1017.15 1016.84 1016.45 1016.14 1015.74 1014.55 1012.06 1012.74 1013.69 1012.07 1009.44 1006.34 1003.07 1001.49 1001.61 1001.27 1001.15 1001.17 1001.03 1001.06 1000.76 1000.65 1000.25 1000.53 1000.99 1001.42 1001.64 1001.55 1001.47 1001.97 1002.38 1002.25 1002.05 1002.01 1001.92 1001.82 1002.01 1002.42 1002.18 1002.76 1003.51 1004.21 1004.90
1017.00 1016.66 1016.33 1015.81 1014.92 1012.88 1012.20 1012.52 1012.69 1012.89 1012.09 1009.09 1005.35 1003.20 1002.16 1001.46 1001.04 1000.79 1000.93 1000.89 1000.66 1000.76 1000.38 1000.54 1000.82 1000.93 1001.24 1001.74 1001.82 1002.46 1002.77 1002.96 1002.74 1002.41 1002.35 1002.41 1002.52 1002.56 1002.89 1002.82 1003.22 1003.69 1004.46 1005.20
1016.61 1016.38 1014.88 1013.17 1012.83 1012.71 1012.70 1012.87 1011.80 1011.37 1009.78 1008.78 1005.93 1004.17 1004.58 1003.49 1001.12 1001.23 1001.03 1000.87 1000.68 1000.65 1000.68 1000.79 1001.15 1001.60 1002.37 1002.60 1002.59 1002.72 1002.84 1002.97 1002.82 1002.67 1002.49 1002.71 1002.91 1003.21 1003.60 1003.87 1004.17 1004.35 1005.09 1005.81
1015.30 1014.52 1014.11 1013.26 1012.78 1012.48 1011.25 1010.74 1009.73 1008.55 1007.00 1005.62 1004.48 1003.92 1004.33 1003.27 1001.70 1001.14 1001.01 1001.49 1001.33 1001.08 1001.15 1001.75 1002.12 1002.66 1003.82 1003.56 1003.38 1003.48 1003.44 1003.54 1003.21 1003.52 1003.87 1003.97 1003.90 1004.00 1004.43 1004.65 1005.00 1005.29 1005.91 1006.82
1016.31 1016.09 1014.74 1013.18 1011.83 1011.14 1010.36 1009.06 1007.47 1006.59 1004.91 1003.25 1003.00 1002.72 1002.65 1002.09 1002.17 1002.01 1002.62 1002.81 1003.36 1003.14 1003.78 1004.41 1004.44 1005.09 1004.92 1004.29 1004.31 1004.12 1004.13 1004.45 1004.80 1005.24 1005.49 1005.86 1005.76 1005.84 1006.00 1006.33 1006.47 1006.61 1006.88 1007.50
1015.61 1015.39 1013.87 1012.18 1011.14 1010.25 1008.57 1006.98 1005.72 1004.91 1003.91 1003.13 1002.61 1002.51 1002.40 1002.57 1002.69 1002.54 1004.13 1005.14 1003.17 1003.67 1004.80 1006.28 1007.27 1007.34 1006.54 1005.98 1005.50 1005.64 1005.77 1006.30 1006.68 1006.95 1007.09 1007.48 1007.58 1007.77 1007.93 1008.04 1008.23 1008.20 1008.36 1008.26
1015.69 1014.46 1013.14 1011.47 1010.05 1008.24 1006.36 1005.47 1004.89 1004.36 1003.69 1003.85 1003.24 1003.44 1002.93 1002.71 1002.88 1002.66 1003.13 1003.87 1003.79 1004.20 1005.00 1006.69 1008.42 1008.58 1008.77 1008.29 1007.31 1007.35 1007.38 1007.65 1008.00 1008.31 1008.46 1008.62 1008.63 1008.91 1009.03 1009.01 1008.86 1008.83 1008.93 1008.70
1015.32 1013.77 1011.49 1009.32 1007.91 1006.78 1006.16 1005.49 1005.18 1004.53 1004.52 1004.56 1004.56 1004.49 1004.19 1003.36 1003.56 1003.44 1004.83 1004.98 1005.60 1004.98 1006.24 1007.92 1009.32 1010.10 1009.65 1009.78 1009.38 1008.97 1009.01 1009.03 1009.18 1009.33 1009.39 1009.26 1009.32 1009.44 1009.56 1009.47 1009.18 1009.33 1009.40 1009.30
1014.84 1013.06 1010.32 1008.39 1007.42 1006.61 1006.09 1006.24 1005.68 1005.12 1004.92 1005.18 1005.37 1005.05 1004.65 1004.57 1004.26 1004.10 1004.24 1004.51 1005.72 1006.68 1007.58 1008.72 1009.52 1010.05 1010.62 1010.61 1010.35 1010.24 1010.30 1010.32 1010.52 1010.71 1010.53 1010.17 1009.97 1009.91 1009.89 1009.85 1009.86 1009.62 1009.74 1009.70
1012.91 1010.49 1009.13 1008.56 1007.88 1007.71 1007.57 1006.95 1006.41 1005.85 1005.54 1006.06 1006.37 1006.15 1006.20 1006.14 1005.96 1004.79 1004.78 1006.02 1007.19 1007.70 1008.56 1009.03 1009.77 1010.23 1010.62 1010.83 1010.86 1010.88 1010.94 1011.17 1011.26 1011.13 1010.91 1010.65 1010.12 1010.16 1010.08 1010.29 1010.12 1010.17 1010.47 1010.42
Wind_Speed
13 14 15 16 18 27 12 7 6 9 9 8 10 13 19 16 12 9 9 15 15 15 14 16 17 19 13 11 18 18 16 13 14 15 15 16 19 17 18 11 17 3 5 7
12 13 14 14 13 13 9 6 10 9 9 9 12 18 20 16 7 11 14 13 14 14 14 12 17 15 11 12 13 13 14 17 13 12 18 17 17 19 19 15 17 7 5 5
11 12 13 14 12 8 7 7 5 7 8 12 18 16 13 14 15 16 17 14 14 13 13 16 8 16 9 5 9 7 12 18 18 16 18 18 24 15 13 18 13 8 4 12
10 12 13 15 16 11 5 6 2 4 7 11 17 16 9 13 17 16 16 13 13 13 13 14 12 14 12 11 8 5 13 18 21 5 21 19 17 14 20 21 12 8 4 6
9 11 13 16 20 26 6 6 10 11 14 14 9 7 9 15 12 14 15 14 15 19 19 18 9 12 13 14 13 14 17 16 16 17 19 20 13 4 20 10 10 8 10 15
8 10 12 15 17 20 6 9 12 9 11 13 13 8 3 14 13 7 14 11 12 18 12 9 10 19 29 8 16 16 18 15 15 16 18 15 19 13 13 10 12 10 13 10
8 10 14 13 13 12 7 10 8 8 12 15 13 14 10 11 31 7 16 14 9 13 15 8 6 14 19 25 12 18 16 16 13 13 14 19 3 23 12 8 11 18 2 13
8 10 12 12 12 12 9 9 8 8 10 14 17 11 20 34 19 13 16 16 10 10 12 11 14 2 7 15 13 17 15 14 11 11 13 5 3 17 13 11 8 14 23 16
8 10 12 13 12 14 9 10 5 8 9 8 16 12 10 11 14 14 16 8 7 11 9 11 14 6 10 9 9 29 18 13 7 6 2 3 5 12 7 13 4 19 27 14
8 10 13 14 14 14 9 7 9 6 10 15 10 10 11 14 13 10 12 26 9 11 8 11 7 6 12 7 11 9 6 5 2 2 5 6 18 17 4 10 8 6 13 13
9 9 11 13 14 15 10 8 3 6 8 16 18 15 15 10 7 9 1 19 11 7 8 9 5 4 2 4 5 3 5 4 7 9 10 10 4 9 7 6 12 5 8 9
9 10 10 11 12 14 13 5 6 6 7 11 20 20 20 16 10 8 8 13 10 7 7 12 8 5 3 7 11 3 4 3 3 15 5 8 3 6 22 16 20 9 11 11
8 10 9 10 12 13 11 7 8 9 10 13 15 16 18 14 13 11 8 7 7 8 9 7 7 7 4 2 3 8 17 11 6 15 5 6 8 1 7 9 9 10 12 13
8 8 9 10 12 13 11 7 8 7 6 8 8 4 6 9 10 8 11 13 13 11 6 5 9 8 8 5 2 1 8 3 4 7 6 13 12 6 8 5 6 11 10 13
8 8 10 12 14 15 12 9 9 6 6 7 11 17 8 6 9 7 8 9 10 7 6 4 2 8 10 8 13 13 13 9 2 4 7 5 7 10 5 4 9 7 11 12
10 11 13 14 15 15 8 2 3 1 4 6 6 8 5 4 2 7 9 8 8 5 6 5 2 11 5 4 3 2 6 10 4 5 3 6 4 8 3 4 7 9 11 10
12 13 15 15 13 8 6 4 4 11 9 6 6 5 7 4 6 7 6 8 5 6 6 3 3 6 2 4 5 7 14 8 7 6 6 5 4 3 2 6 8 8 11 9
13 14 15 16 15 15 9 6 17 7 7 6 6 8 7 9 6 6 6 5 4 3 5 4 1 1 3 3 3 7 11 8 5 3 5 6 4 4 1 4 10 7 9 9
13 15 17 7 6 5 3 5 11 6 6 6 6 5 4 6 6 4 6 5 6 4 6 7 5 6 4 7 4 7 10 8 9 5 3 3 3 5 1 2 7 7 9 8
14 8 6 4 3 9 6 4 6 6 6 7 6 7 4 8 6 7 5 3 5 4 7 5 2 4 9 5 4 5 5 6 7 5 3 1 5 4 4 3 3 1 6 3
6 3 1 4 5 5 4 3 4 5 5 7 7 11 6 12 4 3 3 1 4 5 5 4 5 3 6 4 4 2 3 2 3 12 13 12 8 8 3 3 4 2 6 4
6 6 5 6 4 5 6 5 5 7 6 4 9 8 7 1 2 3 7 3 2 3 5 5 8 3 4 7 6 8 12 15 16 16 14 13 15 14 13 14 13 10 9 8
3 3 3 3 3 1 7 8 6 5 4 3 5 3 3 3 3 3 7 7 5 2 4 7 3 5 6 10 10 14 14 14 14 13 12 12 11 12 10 9 9 8 7 9
3 3 3 5 5 7 7 2 2 1 3 2 2 1 4 5 6 4 3 6 6 4 6 7 6 9 9 12 8 10 11 12 12 11 10 11 10 10 9 8 8 8 3 1
3 4 5 8 8 6 3 2 2 4 2 3 2 1 4 3 2 3 2 1 2 5 5 6 7 8 10 5 9 12 13 9 10 9 8 10 10 8 7 6 7 7 6 7
4 6 7 7 6 2 2 3 2 4 2 3 4 4 3 2 2 5 7 4 4 3 6 9 9 11 10 5 10 10 9 10 10 8 10 9 7 7 4 3 2 2 3 4
5 6 7 6 5 4 2 2 3 2 4 3 5 3 3 2 5 3 3 4 9 10 9 8 10 10 10 8 8 6 6 5 3 3 3 4 5 3 6 10 9 9 11 9
Wind_Direction
317 319 325 330 337 332 327 287 270 131 169 205 224 238 247 274 282 173 257 277 285 298 264 218 214 241 225 195 225 192 226 253 249 196 198 231 224 224 232 242 241 221 115 79
319 320 327 333 340 1 317 284 278 152 204 232 229 220 248 262 285 260 255 243 258 279 290 284 212 226 224 198 204 233 206 241 262 209 192 207 237 226 252 275 279 37 7 115
320 324 328 330 331 338 304 279 279 146 206 257 287 284 219 242 219 254 261 259 266 277 260 276 215 226 134 159 227 338 214 239 243 210 208 201 218 233 257 266 267 153 194 162
325 328 331 330 326 320 276 240 311 298 223 216 238 264 290 289 240 196 231 260 272 269 253 246 247 221 170 171 157 215 219 236 252 293 296 304 212 205 226 245 267 321 170 58
327 334 340 335 333 328 241 300 345 341 300 265 283 297 274 274 264 264 199 232 239 229 256 251 269 245 215 178 185 217 217 233 256 249 188 239 277 175 301 218 246 263 291 127
340 346 348 341 348 335 315 13 333 311 295 282 273 248 298 328 260 327 295 259 298 264 224 31 9 334 323 276 204 200 221 225 234 235 247 196 224 244 250 266 266 265 265 109
350 355 352 346 355 358 313 304 317 293 285 273 276 77 49 350 290 288 297 275 258 282 0 68 33 306 351 7 223 191 219 220 235 248 229 247 237 22 324 279 288 338 132 88
3 360 350 342 346 347 314 306 309 304 297 298 298 15 159 215 249 248 257 266 280 309 292 270 198 245 16 352 321 297 265 216 231 256 235 272 164 29 16 346 2 5 344 144
7 359 350 346 349 346 316 304 352 291 284 266 346 324 301 280 269 272 222 264 280 265 269 262 243 163 136 260 282 237 245 88 94 15 113 84 295 347 4 342 288 331 321 126
5 1 349 348 348 342 324 290 304 293 289 265 320 322 327 315 333 10 6 322 278 220 251 260 51 67 336 59 298 11 52 11 17 217 272 212 158 212 201 222 241 167 293 25
355 355 349 343 346 344 338 296 354 311 299 297 288 296 294 301 327 46 187 291 235 280 227 270 91 74 37 357 330 132 37 359 231 237 249 88 118 140 263 116 76 263 84 74
343 340 343 342 345 345 337 278 333 354 270 295 314 286 276 277 284 294 276 281 295 350 339 59 42 19 334 115 301 298 1 170 303 317 98 157 192 88 188 128 276 129 100 96
332 329 339 345 343 341 343 306 313 294 263 266 251 247 232 238 234 242 260 316 19 333 340 111 79 352 313 61 276 323 354 341 39 286 149 128 107 159 341 358 102 105 120 120
333 336 348 350 339 334 328 297 314 293 291 276 258 133 213 229 260 238 249 275 301 301 301 304 162 173 222 213 107 75 210 234 334 309 246 173 204 148 107 79 91 83 105 109
349 346 344 338 333 328 302 268 261 256 287 321 310 312 256 187 222 229 254 266 279 294 301 280 264 55 167 196 183 194 210 148 50 282 22 66 38 87 69 106 107 113 110 116
341 335 328 325 327 330 287 200 164 162 262 278 288 314 198 274 210 224 239 256 256 270 300 303 32 78 345 305 48 50 34 123 82 58 49 38 19 74 359 125 123 120 119 114
318 317 316 312 312 303 280 340 351 340 305 251 267 258 148 208 215 218 223 229 252 272 282 238 305 106 315 307 275 341 104 80 286 357 13 320 287 21 32 141 132 132 125 126
307 305 304 303 293 275 265 211 224 239 268 273 273 261 180 191 200 190 215 208 230 231 274 289 274 188 187 235 334 1 50 45 12 19 11 315 342 70 304 149 139 165 133 120
298 300 295 283 210 235 64 88 127 203 290 300 254 289 350 174 232 205 171 249 212 233 229 247 275 270 270 40 104 58 29 9 342 8 317 11 58 70 55 166 129 184 129 138
291 276 212 218 27 122 138 172 187 200 210 224 258 296 356 301 196 191 192 214 256 191 225 222 241 243 84 62 71 69 41 352 316 320 318 125 76 98 94 118 241 107 107 72
201 238 301 310 141 233 217 238 227 209 239 207 235 254 175 230 279 243 207 145 300 242 191 208 217 169 49 19 84 75 87 249 301 77 54 25 47 96 111 156 149 307 69 185
326 295 279 253 221 222 225 212 209 208 234 209 209 211 226 41 29 263 29 335 69 306 29 31 5 87 99 88 107 95 71 74 66 63 62 54 52 49 48 37 28 20 28 68
314 250 259 234 230 263 225 196 200 196 225 201 209 159 219 201 262 231 92 252 215 28 155 124 218 215 9 34 83 80 76 67 60 57 52 62 62 58 50 48 29 13 11 19
260 213 238 231 214 220 238 323 228 250 179 96 296 351 225 203 197 256 242 11 328 199 232 67 86 71 32 344 40 71 82 86 82 80 76 71 60 56 45 34 29 30 29 319
262 239 236 221 213 255 231 180 326 116 125 41 281 93 285 257 189 130 157 87 259 341 58 98 123 94 78 40 54 62 54 63 76 57 54 46 39 46 37 30 43 38 11 11
245 232 260 280 295 215 30 59 219 341 282 68 309 198 309 245 195 229 189 216 121 110 100 122 114 96 94 75 78 73 66 62 55 35 11 13 22 24 3 63 35 308 284 282
245 233 251 264 285 81 129 190 184 298 280 130 217 227 80 69 314 181 32 73 108 112 117 109 113 116 119 118 103 92 87 84 40 334 326 329 349 0 345 31 24 4 30 14